Ponca City, OK

8:43 AM CST on December 14, 2019 (GMT -0600)
Ponca City Municipal

Weather History for KPNC - November, 2019

Change the Weather History Date:

Saturday, November 16, 2019

  Actual Average Record
Temperature  
Mean Temperature 50 °F -  
Max Temperature 63 °F 64 °F 86 °F (2016)
Min Temperature 36 °F 42 °F 8 °F (1955)
Degree Days  
Heating Degree Days 16    
Moisture  
Dew Point 30 °F    
Average Humidity 48    
Maximum Humidity 70    
Minimum Humidity 31    
Precipitation  
Precipitation 0.00 in - - ()
Sea Level Pressure  
Sea Level Pressure 30.10 in    
Wind  
Wind Speed 11 mph (SSE)    
Max Wind Speed 18 mph    
Max Gust Speed 23 mph    
Visibility 10 miles    
Events      
Averages and records for this station are not official NWS values.
T = Trace of Precipitation, MM = Missing Value Source: NWS Daily Summary

Daily Weather History Graph

Daily Weather History Graph

Search for Another Location

Airport or City:

Astronomy

Nov. 16, 2019 Rise Set
Actual Time 7:07 AM CST 5:18 PM CST
Civil Twilight 6:39 AM CST 5:46 PM CST
Nautical Twilight 6:08 AM CST 6:17 PM CST
Astronomical Twilight 5:37 AM CST 6:48 PM CST
Moon 8:55 PM CST (11/16) 10:59 AM CST (11/16)
Length of Visible Light 11h 06m
Length of Day
10h 11m
Waning Gibbous, 82% of the Moon is Illuminated
Nov 16
Waning Gibbous
Nov 19
Last Quarter
Nov 26
New
Dec 4
First Quarter
Dec 11
Full

Hourly Weather History & Observations

Time (CST) Temp. Windchill Dew Point Humidity Pressure Visibility Wind Dir Wind Speed Gust Speed Precip Events Conditions
12:53 AM 39.9 °F 34.5 °F 28.0 °F 63% 30.23 in 10.0 mi SSE 8.1 mph - N/A   Clear
1:53 AM 39.9 °F 34.5 °F 27.0 °F 60% 30.22 in 10.0 mi SSE 8.1 mph - N/A   Clear
2:53 AM 37.0 °F 31.0 °F 27.0 °F 67% 30.21 in 10.0 mi SE 8.1 mph - N/A   Clear
3:53 AM 36.0 °F 30.3 °F 27.0 °F 70% 30.20 in 10.0 mi SE 6.9 mph - N/A   Clear
4:53 AM 37.0 °F 29.8 °F 27.0 °F 67% 30.20 in 10.0 mi SSE 10.4 mph - N/A   Clear
5:53 AM 37.9 °F 30.9 °F 27.0 °F 65% 30.19 in 10.0 mi SSE 10.4 mph - N/A   Clear
6:53 AM 39.0 °F 31.4 °F 27.0 °F 62% 30.20 in 10.0 mi SSE 12.7 mph - N/A   Clear
7:53 AM 41.0 °F 33.9 °F 28.0 °F 60% 30.20 in 10.0 mi SSE 12.7 mph - N/A   Clear
8:53 AM 46.9 °F - 28.9 °F 50% 30.19 in 10.0 mi SSE 11.5 mph 16.1 mph N/A   Clear
9:53 AM 52.0 °F - 30.0 °F 43% 30.17 in 10.0 mi South 11.5 mph 21.9 mph N/A   Clear
10:53 AM 55.9 °F - 30.9 °F 39% 30.15 in 10.0 mi South 16.1 mph 21.9 mph N/A   Clear
11:53 AM 60.1 °F - 32.0 °F 35% 30.12 in 10.0 mi South 10.4 mph 20.7 mph N/A   Clear
12:53 PM 63.0 °F - 32.0 °F 31% 30.07 in 10.0 mi South 12.7 mph 23.0 mph N/A   Clear
1:53 PM 63.0 °F - 32.0 °F 31% 30.04 in 10.0 mi South 11.5 mph 19.6 mph N/A   Clear
2:53 PM 63.0 °F - 32.0 °F 31% 30.00 in 10.0 mi SSE 18.4 mph - N/A   Clear
3:53 PM 63.0 °F - 32.0 °F 31% 29.99 in 10.0 mi SSE 15.0 mph 23.0 mph N/A   Clear
4:53 PM 60.1 °F - 32.0 °F 35% 29.98 in 10.0 mi SSE 12.7 mph - N/A   Clear
5:53 PM 57.0 °F - 30.9 °F 37% 29.99 in 10.0 mi SSE 15.0 mph - N/A   Clear
6:53 PM 55.0 °F - 30.9 °F 40% 30.01 in 10.0 mi SSE 17.3 mph - N/A   Clear
7:53 PM 54.0 °F - 30.9 °F 41% 30.02 in 10.0 mi SSE 13.8 mph - N/A   Clear
8:53 PM 53.1 °F - 30.9 °F 43% 30.03 in 10.0 mi SSE 16.1 mph 20.7 mph N/A   Clear
9:53 PM 52.0 °F - 32.0 °F 47% 30.04 in 10.0 mi South 9.2 mph 17.3 mph N/A   Clear
10:53 PM 51.1 °F - 32.0 °F 48% 30.02 in 10.0 mi SSE 12.7 mph - N/A   Clear
11:53 PM 50.0 °F - 32.0 °F 50% 30.02 in 10.0 mi SSE 11.5 mph - N/A   Clear